FW5436 Weather Reports


Display with metric or nautical units.
time (UTC)temp
F
wind
direction
speed
MPH
gust
MPH
rain 1hr
in
rain 24hr
in
rain mn
in
humidity
%
barometer
mb
20260831135651 61 113 2.0 6.0 0.00 0.01 0.01 79 1016.8
20260831135141 61 248 3.0 8.0 0.00 0.01 0.01 80 1016.6
20260831134631 60 315 2.0 8.0 0.00 0.01 0.01 80 1016.6
20260831133611 60 180 2.0 4.0 0.00 0.01 0.01 82 1016.8
20260831133100 59 158 1.0 4.0 0.00 0.01 0.01 84 1016.6
20260831132551 59 23 2.0 4.0 0.00 0.01 0.01 84 1016.4
20260831132041 59 203 1.0 4.0 0.00 0.01 0.01 85 1016.2
20260831131020 58 113 2.0 7.0 0.00 0.01 0.01 87 1016.2
20260831130510 58 270 1.0 4.0 0.00 0.01 0.01 88 1016.0
20260831130003 58 293 2.0 4.0 0.00 0.01 0.01 89 1016.0
20260831125450 57 45 1.0 4.0 0.00 0.01 0.01 90 1015.9
20260831124940 57 293 0.0 4.0 0.00 0.01 0.01 92 1016.0
20260831124429 56 225 1.0 4.0 0.00 0.01 0.01 93 1016.1
20260831123919 56 180 2.0 4.0 0.00 0.01 0.01 94 1016.2
20260831123409 56 338 0.0 4.0 0.00 0.01 0.01 95 1016.1
20260831122858 56 0 0.0 4.0 0.01 0.01 0.01 96 1015.9
20260831122354 56 270 1.0 4.0 0.01 0.01 0.01 96 1016.0
20260831121839 56 90 1.0 4.0 0.01 0.01 0.01 97 1016.1
20260831121329 55 90 1.0 4.0 0.01 0.01 0.01 97 1016.0
20260831120818 55 113 2.0 4.0 0.01 0.01 0.01 97 1015.7
20260831120310 55 248 0.0 4.0 0.01 0.01 0.01 97 1015.6
20260831115247 55 90 1.0 4.0 0.01 0.01 0.01 98 1015.6
20260831114743 54 248 0.0 4.0 0.01 0.01 0.01 98 1015.4
20260831114227 54 203 1.0 4.0 0.01 0.01 0.01 98 1015.4
20260831113717 53 293 0.0 2.0 0.01 0.01 0.01 98 1015.6
20260831113207 53 225 0.0 2.0 0.01 0.01 0.01 98 1015.6
20260831112147 53 203 1.0 4.0 0.00 0.00 0.00 98 1015.6
20260831111637 52 203 0.0 2.0 0.00 0.00 0.00 98 1015.4
20260831110617 52 248 0.0 2.0 0.00 0.00 0.00 98 1015.7
20260831110106 51 113 1.0 2.0 0.00 0.00 0.00 98 1015.5
20260831105557 51 225 0.0 2.0 0.00 0.00 0.00 98 1015.5
20260831105046 51 248 0.0 0.0 0.00 0.00 0.00 98 1015.4
20260831104535 50 0 0.0 0.0 0.00 0.00 0.00 98 1015.6
20260831104026 50 0 0.0 0.0 0.00 0.00 0.00 98 1015.2
20260831103005 50 0 0.0 0.0 0.00 0.00 0.00 98 1015.4
20260831102455 50 0 0.0 0.0 0.00 0.00 0.00 98 1015.5
20260831101946 51 0 0.0 0.0 0.00 0.00 0.00 98 1015.4
20260831101435 51 0 0.0 2.0 0.00 0.00 0.00 98 1015.0
20260831100925 51 0 0.0 2.0 0.00 0.00 0.00 98 1015.4
20260831100414 51 0 0.0 2.0 0.00 0.00 0.00 98 1015.4
20260831095905 51 180 0.0 2.0 0.00 0.00 0.00 98 1015.3
20260831095354 51 293 0.0 2.0 0.00 0.00 0.00 98 1015.2
20260831094844 51 23 0.0 2.0 0.00 0.00 0.00 98 1015.3
20260831094345 51 203 1.0 4.0 0.00 0.00 0.00 98 1015.3
20260831093314 52 225 1.0 2.0 0.00 0.00 0.00 98 1015.3
20260831092804 51 90 1.0 2.0 0.00 0.00 0.00 98 1015.6
20260831092254 51 158 0.0 2.0 0.00 0.00 0.00 98 1015.4
20260831091748 52 203 1.0 2.0 0.00 0.00 0.00 98 1015.4
20260831090723 52 203 1.0 2.0 0.00 0.00 0.00 98 1015.3
20260831090213 52 135 0.0 4.0 0.00 0.00 0.00 98 1015.3
20260831085703 52 180 1.0 4.0 0.00 0.00 0.00 98 1015.3
20260831085152 52 158 1.0 2.0 0.00 0.00 0.00 97 1015.3
20260831084643 52 23 0.0 2.0 0.00 0.00 0.00 97 1015.5
20260831082603 52 293 0.0 2.0 0.00 0.00 0.00 97 1015.2
20260831082052 51 338 0.0 2.0 0.00 0.00 0.00 97 1015.2
20260831081032 50 203 0.0 0.0 0.00 0.00 0.00 97 1015.2
20260831080521 50 135 0.0 0.0 0.00 0.00 0.00 97 1015.2
20260831075501 51 113 0.0 0.0 0.00 0.00 0.00 97 1015.1
20260831074441 52 135 0.0 0.0 0.00 0.00 0.00 97 1015.1
20260831073931 52 270 0.0 2.0 0.00 0.00 0.00 97 1015.2
20260831072915 53 203 0.0 4.0 0.00 0.00 0.00 97 1015.1
20260831072400 53 225 1.0 4.0 0.00 0.00 0.00 97 1015.2
20260831071850 53 68 0.0 6.0 0.00 0.00 0.00 97 1014.9
20260831071340 53 45 1.0 6.0 0.00 0.00 0.00 97 1014.9
20260831070319 53 225 2.0 4.0 0.00 0.00 0.00 97 1015.0
20260831065809 53 248 1.0 4.0 0.00 0.00 0.00 97 1014.9
20260831064749 53 68 1.0 4.0 0.00 0.00 0.00 97 1015.1
20260831064239 53 248 0.0 4.0 0.00 0.00 0.00 97 1015.3
20260831063729 52 225 2.0 4.0 0.00 0.00 0.00 97 1015.1
20260831062713 52 225 0.0 2.0 0.00 0.00 0.00 97 1015.1
20260831062159 52 90 0.0 4.0 0.00 0.00 0.00 97 1015.1
20260831061648 52 203 1.0 4.0 0.00 0.00 0.00 97 1015.1
20260831061138 52 113 0.0 4.0 0.00 0.00 0.00 97 1015.3
20260831060628 52 270 0.0 4.0 0.00 0.00 0.00 97 1015.1
20260831060118 52 45 1.0 4.0 0.00 0.00 0.00 97 1015.6
20260831055608 52 248 0.0 2.0 0.00 0.00 0.00 97 1015.5
20260831055057 52 338 0.0 2.0 0.00 0.00 0.00 97 1015.6
20260831054037 52 180 0.0 4.0 0.00 0.00 0.00 97 1015.5
20260831053527 52 248 0.0 0.0 0.00 0.00 0.00 97 1016.1
20260831052603 52 180 1.0 2.0 0.00 0.00 0.00 97 1016.0
20260831052052 52 45 0.0 2.0 0.00 0.00 0.00 97 1015.8
20260831051543 52 0 0.0 2.0 0.00 0.00 0.00 97 1015.7
20260831051032 52 113 0.0 2.0 0.00 0.00 0.00 97 1015.9
20260831050522 52 248 0.0 2.0 0.00 0.00 0.00 97 1015.7
20260831050012 52 0 0.0 4.0 0.00 0.00 0.00 97 1016.0
20260831045502 52 315 0.0 4.0 0.00 0.00 0.00 97 1016.0
20260831044441 51 135 0.0 2.0 0.00 0.00 0.00 97 1015.8
20260831043932 51 135 0.0 2.0 0.00 0.00 0.00 97 1016.0
20260831040830 51 135 0.0 2.0 0.00 0.00 0.00 97 1015.6
20260831040320 51 135 0.0 2.0 0.00 0.00 0.00 97 1015.8
20260831035810 51 135 0.0 2.0 0.00 0.00 0.00 97 1015.9
20260831035300 51 158 0.0 2.0 0.00 0.00 0.00 97 1015.7
20260831034750 51 225 0.0 2.0 0.00 0.00 0.00 97 1015.9
20260831034240 51 90 0.0 2.0 0.00 0.00 0.00 96 1016.0
20260831033729 51 248 0.0 2.0 0.00 0.00 0.00 96 1015.9
20260831033220 50 293 0.0 2.0 0.00 0.00 0.00 96 1015.7
20260831032709 50 203 0.0 2.0 0.00 0.00 0.00 96 1015.6
20260831032159 50 23 0.0 2.0 0.00 0.00 0.00 96 1015.8
20260831031649 51 225 0.0 2.0 0.00 0.00 0.00 96 1015.7
20260831031138 50 248 0.0 2.0 0.00 0.00 0.00 96 1015.8
20260831030636 50 248 0.0 2.0 0.00 0.00 0.00 96 1015.9
20260831030119 50 225 0.0 2.0 0.00 0.00 0.00 96 1016.0
20260831025609 50 225 1.0 2.0 0.00 0.00 0.00 96 1016.0
20260831025058 50 225 0.0 2.0 0.00 0.00 0.00 96 1016.0
20260831023018 50 203 0.0 0.0 0.00 0.00 0.00 96 1016.5
20260831021957 51 203 0.0 0.0 0.00 0.00 0.00 96 1016.4
20260831021447 51 203 0.0 0.0 0.00 0.00 0.00 96 1016.6
20260831020939 51 315 0.0 0.0 0.00 0.00 0.00 96 1016.5
20260831020427 51 315 0.0 0.0 0.00 0.00 0.00 96 1016.4
20260831015917 51 0 0.0 2.0 0.00 0.00 0.00 96 1016.4
20260831015407 51 0 0.0 2.0 0.00 0.00 0.00 95 1016.2
20260831014856 51 293 0.0 2.0 0.00 0.00 0.00 95 1016.2
20260831014347 51 135 0.0 2.0 0.00 0.00 0.00 95 1016.3
20260831013836 51 45 0.0 2.0 0.00 0.00 0.00 95 1016.4
20260831013326 51 0 0.0 2.0 0.00 0.00 0.00 95 1016.1
20260831012816 51 0 0.0 2.0 0.00 0.00 0.00 95 1016.4
20260831012306 52 45 1.0 2.0 0.00 0.00 0.00 95 1016.1
20260831011757 52 270 0.0 2.0 0.00 0.00 0.00 95 1016.0
20260831010735 52 135 0.0 2.0 0.00 0.00 0.00 95 1016.3
20260831010226 52 315 0.0 2.0 0.00 0.00 0.00 95 1016.2
20260831005715 52 68 0.0 2.0 0.00 0.00 0.00 95 1016.3
20260831004145 52 158 0.0 2.0 0.00 0.00 0.00 94 1016.3
20260831003636 52 293 0.0 2.0 0.00 0.00 0.00 94 1016.4
20260831003125 52 225 0.0 2.0 0.00 0.00 0.00 94 1016.3
20260831002615 53 270 0.0 2.0 0.00 0.00 0.00 94 1016.3
20260831002104 53 315 1.0 2.0 0.00 0.00 0.00 94 1016.3
20260831001554 53 68 1.0 4.0 0.00 0.00 0.00 93 1016.3
20260831001044 53 158 1.0 4.0 0.00 0.00 0.00 93 1016.2
20260831000535 53 248 1.0 4.0 0.00 0.00 0.00 93 1016.2
20260831000023 53 338 1.0 4.0 0.00 0.00 0.00 92 1016.2
20260830235513 53 0 0.0 4.0 0.00 0.00 0.00 92 1016.4
20260830235004 53 270 1.0 4.0 0.00 0.00 0.00 92 1016.5
20260830234453 53 293 1.0 4.0 0.00 0.00 0.00 92 1016.4
20260830233944 53 68 1.0 4.0 0.00 0.00 0.00 92 1016.2
20260830233433 53 203 2.0 4.0 0.00 0.00 0.00 92 1016.3
20260830232923 53 270 1.0 4.0 0.00 0.00 0.00 92 1016.0
20260830232413 53 315 1.0 6.0 0.00 0.00 0.00 92 1016.3
20260830231353 53 270 2.0 4.0 0.00 0.00 0.00 92 1016.3
20260830230842 53 68 0.0 4.0 0.00 0.00 0.00 92 1016.4
20260830230332 53 68 0.0 4.0 0.00 0.00 0.00 92 1016.4
20260830225822 54 338 1.0 4.0 0.00 0.00 0.00 92 1016.2
20260830224801 54 315 0.0 4.0 0.00 0.00 0.00 91 1016.3
20260830224252 54 45 1.0 4.0 0.00 0.00 0.00 91 1016.1
20260830223232 54 113 0.0 4.0 0.00 0.00 0.00 89 1016.2
20260830222724 54 90 0.0 2.0 0.00 0.00 0.00 89 1015.9
20260830222211 55 0 1.0 2.0 0.00 0.00 0.00 88 1015.9
20260830221700 55 113 1.0 4.0 0.00 0.00 0.00 87 1015.9
20260830221151 55 113 0.0 4.0 0.00 0.00 0.00 85 1015.9
20260830220640 55 158 1.0 2.0 0.00 0.00 0.00 84 1015.8
20260830220131 55 315 1.0 2.0 0.00 0.00 0.00 82 1015.7
20260830215620 55 90 0.0 2.0 0.00 0.00 0.00 81 1015.7
20260830215111 55 68 0.0 2.0 0.00 0.00 0.00 79 1015.8
20260830214600 56 68 0.0 2.0 0.00 0.00 0.00 79 1015.9
20260830214049 56 90 0.0 2.0 0.00 0.00 0.00 78 1015.5
20260830213030 56 23 0.0 2.0 0.00 0.00 0.00 77 1015.5
20260830212520 57 135 0.0 4.0 0.00 0.00 0.00 77 1015.7
20260830212009 57 270 0.0 4.0 0.00 0.00 0.00 77 1015.7
20260830211459 58 0 2.0 4.0 0.00 0.00 0.00 76 1015.5
20260830210949 58 180 1.0 2.0 0.00 0.00 0.00 75 1015.5
20260830205928 59 270 0.0 2.0 0.00 0.00 0.00 72 1015.5
20260830205420 60 45 0.0 4.0 0.00 0.00 0.00 73 1015.4
20260830204908 59 293 0.0 4.0 0.00 0.00 0.00 73 1015.4
20260830204359 60 0 1.0 4.0 0.00 0.00 0.00 71 1015.6
20260830203848 61 338 0.0 2.0 0.00 0.00 0.00 70 1015.5
20260830202828 65 23 0.0 4.0 0.00 0.00 0.00 62 1015.6
20260830202319 65 270 0.0 4.0 0.00 0.00 0.00 58 1015.5
20260830201807 66 203 1.0 4.0 0.00 0.00 0.00 57 1015.4
20260830201258 66 68 1.0 7.0 0.00 0.00 0.00 47 1015.4
20260830200749 66 45 2.0 7.0 0.00 0.00 0.00 47 1015.4
20260830200238 66 45 2.0 6.0 0.00 0.00 0.00 48 1015.5
20260830195727 66 68 2.0 6.0 0.00 0.00 0.00 48 1015.4
20260830195217 66 68 2.0 7.0 0.00 0.00 0.00 48 1015.6
20260830194707 66 113 4.0 8.0 0.00 0.00 0.00 47 1015.5
20260830194158 66 68 3.0 8.0 0.00 0.00 0.00 50 1015.6
20260830193646 65 90 3.0 8.0 0.00 0.00 0.00 50 1015.6
20260830193136 66 23 2.0 8.0 0.00 0.00 0.00 51 1015.7
20260830192626 66 113 2.0 8.0 0.00 0.00 0.00 51 1015.5
20260830192116 66 45 3.0 8.0 0.00 0.00 0.00 51 1015.6
20260830191607 67 23 3.0 7.0 0.00 0.00 0.00 52 1015.7
20260830190545 67 113 2.0 7.0 0.00 0.00 0.00 52 1015.6
20260830190035 67 113 2.0 7.0 0.00 0.00 0.00 51 1015.5
20260830185016 67 68 2.0 8.0 0.00 0.00 0.00 50 1015.5
20260830184512 68 180 2.0 7.0 0.00 0.00 0.00 49 1015.5
20260830182425 68 45 3.0 8.0 0.00 0.00 0.00 51 1015.4
20260830181913 67 45 2.0 8.0 0.00 0.00 0.00 51 1015.5
20260830181404 67 45 4.0 8.0 0.00 0.00 0.00 53 1015.6
20260830180855 67 90 4.0 8.0 0.00 0.00 0.00 53 1015.6
20260830180343 67 68 5.0 8.0 0.00 0.00 0.00 55 1015.5
20260830175833 67 68 3.0 8.0 0.00 0.00 0.00 53 1015.5
20260830175324 67 90 3.0 8.0 0.00 0.00 0.00 52 1015.7
20260830174813 67 0 4.0 8.0 0.00 0.00 0.00 53 1015.2
20260830174304 67 338 4.0 7.0 0.00 0.00 0.00 54 1015.5
20260830173753 67 135 3.0 11.0 0.00 0.00 0.00 53 1015.6
20260830173243 66 45 3.0 11.0 0.00 0.00 0.00 54 1015.5
20260830172733 66 68 2.0 9.0 0.00 0.00 0.00 54 1015.5
20260830172225 66 45 3.0 7.0 0.00 0.00 0.00 56 1015.6
20260830170916 66 90 3.0 11.0 0.00 0.00 0.00 55 1015.8
20260830170406 66 23 5.0 11.0 0.00 0.00 0.00 56 1016.0
20260830165856 67 68 3.0 13.0 0.00 0.00 0.00 54 1016.0
20260830165346 66 68 3.0 13.0 0.00 0.00 0.00 55 1016.1
20260830164836 66 158 5.0 9.0 0.00 0.00 0.00 55 1016.2
20260830164326 66 23 4.0 9.0 0.00 0.00 0.00 56 1016.2
20260830163815 66 0 4.0 9.0 0.00 0.00 0.00 55 1016.1
20260830163305 67 23 4.0 8.0 0.00 0.00 0.00 55 1016.2
20260830162755 66 90 3.0 7.0 0.00 0.00 0.00 55 1016.0
20260830162245 67 90 3.0 8.0 0.00 0.00 0.00 54 1016.3
20260830161735 67 180 2.0 11.0 0.00 0.00 0.00 54 1016.2
20260830161224 66 68 5.0 11.0 0.00 0.00 0.00 54 1016.2
20260830160714 67 45 4.0 7.0 0.00 0.00 0.00 53 1016.2
20260830160204 67 68 2.0 9.0 0.00 0.00 0.00 53 1016.4
20260830155655 67 68 7.0 11.0 0.00 0.00 0.00 54 1016.5
20260830155144 66 45 2.0 11.0 0.00 0.00 0.00 54 1016.5
20260830154634 66 90 3.0 11.0 0.00 0.00 0.00 55 1016.5
20260830154124 66 68 4.0 8.0 0.00 0.00 0.00 55 1016.6
20260830153614 66 68 4.0 8.0 0.00 0.00 0.00 56 1016.7
20260830153103 67 90 2.0 6.0 0.00 0.00 0.00 54 1016.8
20260830152553 66 113 2.0 8.0 0.00 0.00 0.00 54 1016.6
20260830152044 65 113 4.0 8.0 0.00 0.00 0.00 55 1016.4
20260830151533 65 338 2.0 8.0 0.00 0.00 0.00 56 1016.7
20260830151032 65 0.0 0.0 0.00 0.00 0.00 65
20260830142850 62 113 2.0 7.0 0.00 0.00 0.00 74 1017.1
20260830142340 63 293 2.0 4.0 0.00 0.00 0.00 73 1017.1
20260830141829 62 90 1.0 4.0 0.00 0.00 0.00 74 1017.0
20260830141319 61 158 1.0 4.0 0.00 0.00 0.00 75 1017.2
20260830140813 61 203 2.0 6.0 0.00 0.00 0.00 76 1017.0
20260830140303 61 23 2.0 7.0 0.00 0.00 0.00 76 1017.1